Regional Weather Roundup
Issued by NWS Goodland, KS

Home | Current Version | Previous Version | Text Only | Print | Product List | Glossary On
Versions: 1 2 3 4 5 6 7 8 9 10 11 12 13 14 15 16 17 18 19 20 21 22 23 24 25 26 27 28 29 30 31 32 33 34 35 36 37 38 39 40 41 42 43 44 45 46 47 48 49 50
000
ASUS43 KGLD 021959
RWRGLD

GOODLAND FORECAST AREA HOURLY WEATHER ROUNDUP
NATIONAL WEATHER SERVICE GOODLAND KS
200 PM MDT TUE JUN 02 2015

...OFFICIAL OBSERVATIONS...

CITY           SKY/WX    TMP DP  RH WIND       PRES   REMARKS
GOODLAND KS    SUNNY     84  61  45 S8        29.85F
HILL CITY KS   SUNNY     85  66  53 S12       29.85F
IMPERIAL NEB   MOSUNNY   82  66  58 S9        29.84F
MCCOOK NEB     SUNNY     84  66  54 SE13      29.83F
AKRON CO       SUNNY     83  48  29 SW5       29.90F
BURLINGTON CO  MOSUNNY   85  55  35 SW5       29.89F
LIMON CO       SUNNY     82  41  23 SW5       29.96F
$$

...UNOFFICIAL OBSERVATIONS...

CITY           SKY/WX    TMP DP  RH WIND       PRES   REMARKS
COLBY KS       SUNNY     90  63  40 S13       29.86F
GOVE KS          N/A     86  32  14 MISG        N/A
NORTON KS      SUNNY     82  59  44 SE12      29.84F
SHARON SPRINGS   N/A     88  58  36 MISG        N/A
KIT CARSON CO    N/A     83  59  44 MISG        N/A
$$


USA.gov is the U.S. government's official web portal to all federal, state and local government web resources and services.